Satellite: UO-22
Catalog number: 21575
Epoch time:      05117.80862980
Element set:     390
Inclination:      098.2410 deg
RA of node:       085.0514 deg
Eccentricity:    0.0006518
Arg of perigee:   237.4658 deg
Mean anomaly:     122.5896 deg
Mean motion:   14.39478826 rev/day
Decay rate:        2.9e-07 rev/day^2
Epoch rev:           72325
Checksum:              319

Satellite: KO-23
Catalog number: 22077
Epoch time:      05117.84230208
Element set:    0456
Inclination:      066.0868 deg
RA of node:       251.8847 deg
Eccentricity:    0.0015696
Arg of perigee:   268.7988 deg
Mean anomaly:     091.1227 deg
Mean motion:   12.86429816 rev/day
Decay rate:       -3.7e-07 rev/day^2
Epoch rev:           59711
Checksum:              337

Satellite: AO-27
Catalog number: 22825
Epoch time:      05117.92665394
Element set:    0124
Inclination:      098.2506 deg
RA of node:       116.0888 deg
Eccentricity:    0.0009323
Arg of perigee:   056.5779 deg
Mean anomaly:     303.6263 deg
Mean motion:   14.29124726 rev/day
Decay rate:       -1.8e-07 rev/day^2
Epoch rev:           60404
Checksum:              307

Satellite: IO-26
Catalog number: 22826
Epoch time:      05117.54672064
Element set:    0789
Inclination:      098.2464 deg
RA of node:       117.0158 deg
Eccentricity:    0.0009912
Arg of perigee:   054.4192 deg
Mean anomaly:     305.7914 deg
Mean motion:   14.29364872 rev/day
Decay rate:        1.8e-07 rev/day^2
Epoch rev:           60405
Checksum:              312

Satellite: KO-25
Catalog number: 22828
Epoch time:      05117.90501133
Element set:    0040
Inclination:      098.2398 deg
RA of node:       117.5632 deg
Eccentricity:    0.0010568
Arg of perigee:   032.3008 deg
Mean anomaly:     327.8809 deg
Mean motion:   14.29678856 rev/day
Decay rate:        1.7e-07 rev/day^2
Epoch rev:           57233
Checksum:              301

Satellite: TO-31
Catalog number: 25396
Epoch time:      05118.79175783
Element set:     235
Inclination:      098.5318 deg
RA of node:       187.5173 deg
Eccentricity:    0.0001906
Arg of perigee:   346.8210 deg
Mean anomaly:     013.2936 deg
Mean motion:   14.23666168 rev/day
Decay rate:       -4.3e-07 rev/day^2
Epoch rev:           35338
Checksum:              315

Satellite: GO-32
Catalog number: 25397
Epoch time:      05117.87130519
Element set:    0728
Inclination:      098.5225 deg
RA of node:       184.2379 deg
Eccentricity:    0.0001047
Arg of perigee:   035.3761 deg
Mean anomaly:     324.7493 deg
Mean motion:   14.23075975 rev/day
Decay rate:        2.6e-07 rev/day^2
Epoch rev:           35317
Checksum:              311

Satellite: UO-36
Catalog number: 25693
Epoch time:      05118.62363485
Element set:     141
Inclination:      064.5579 deg
RA of node:       075.9186 deg
Eccentricity:    0.0030143
Arg of perigee:   218.1450 deg
Mean anomaly:     141.7542 deg
Mean motion:   14.78493305 rev/day
Decay rate:       -5.3e-07 rev/day^2
Epoch rev:           32449
Checksum:              306

Satellite: SO-41
Catalog number: 26545
Epoch time:      05118.78737714
Element set:      61
Inclination:      064.5565 deg
RA of node:       090.0344 deg
Eccentricity:    0.0044634
Arg of perigee:   313.9131 deg
Mean anomaly:     045.8319 deg
Mean motion:   14.80070656 rev/day
Decay rate:       1.31e-06 rev/day^2
Epoch rev:           24761
Checksum:              288

Satellite: MO-46
Catalog number: 26548
Epoch time:      05117.87383619
Element set:    0167
Inclination:      064.5560 deg
RA of node:       076.0478 deg
Eccentricity:    0.0041923
Arg of perigee:   305.3810 deg
Mean anomaly:     054.3402 deg
Mean motion:   14.82690714 rev/day
Decay rate:       2.17e-06 rev/day^2
Epoch rev:           24783
Checksum:              309

Satellite: SO-42
Catalog number: 26549
Epoch time:      05118.73986602
Element set:     125
Inclination:      064.5555 deg
RA of node:       098.5353 deg
Eccentricity:    0.0045434
Arg of perigee:   318.6879 deg
Mean anomaly:     041.0802 deg
Mean motion:   14.78951103 rev/day
Decay rate:       1.56e-06 rev/day^2
Epoch rev:           24744
Checksum:              318

Satellite: NO-44
Catalog number: 26931
Epoch time:      05117.86972404
Element set:    0028
Inclination:      067.0550 deg
RA of node:       357.3886 deg
Eccentricity:    0.0006662
Arg of perigee:   259.2550 deg
Mean anomaly:     100.7801 deg
Mean motion:   14.29377698 rev/day
Decay rate:       1.83e-06 rev/day^2
Epoch rev:           18657
Checksum:              326

Satellite: AO-49
Catalog number: 27605
Epoch time:      05117.85502177
Element set:    0724
Inclination:      064.5583 deg
RA of node:       288.3626 deg
Eccentricity:    0.0084084
Arg of perigee:   250.1574 deg
Mean anomaly:     109.0405 deg
Mean motion:   14.72072895 rev/day
Decay rate:       -4.0e-08 rev/day^2
Epoch rev:           12644
Checksum:              307

Satellite: SO-50
Catalog number: 27607
Epoch time:      05117.86265312
Element set:    0706
Inclination:      064.5595 deg
RA of node:       293.7047 deg
Eccentricity:    0.0084735
Arg of perigee:   249.0062 deg
Mean anomaly:     110.1913 deg
Mean motion:   14.70937968 rev/day
Decay rate:       1.04e-06 rev/day^2
Epoch rev:           12633
Checksum:              303

